Year,Month,Day,Hour,Minute,Value (Times are PST for temperature in C)
2011,06,26,00,00,11.10
2011,06,26,00,01,11.10
2011,06,26,00,02,11.10
2011,06,26,00,03,11.00
2011,06,26,00,04,11.00
2011,06,26,00,05,11.00
2011,06,26,00,06,11.00
2011,06,26,00,07,10.90
2011,06,26,00,08,10.90
2011,06,26,00,09,10.90
2011,06,26,00,10,10.90
2011,06,26,00,11,10.90
2011,06,26,00,12,10.90
2011,06,26,00,13,10.80
2011,06,26,00,14,10.80
2011,06,26,00,15,10.80
2011,06,26,00,16,10.80
2011,06,26,00,17,10.80
2011,06,26,00,18,10.80
2011,06,26,00,19,10.80
2011,06,26,00,20,10.80
2011,06,26,00,21,10.80
2011,06,26,00,22,10.80
2011,06,26,00,23,10.80
2011,06,26,00,24,10.70
2011,06,26,00,25,10.70
2011,06,26,00,26,10.70
2011,06,26,00,27,10.70
2011,06,26,00,28,10.70
2011,06,26,00,29,10.70
2011,06,26,00,30,10.60
2011,06,26,00,31,10.60
2011,06,26,00,32,10.60
2011,06,26,00,33,10.60
2011,06,26,00,34,10.60
2011,06,26,00,35,10.60
2011,06,26,00,36,10.60
2011,06,26,00,37,10.60
2011,06,26,00,38,10.50
2011,06,26,00,39,10.50
2011,06,26,00,40,10.50
2011,06,26,00,41,10.50
2011,06,26,00,42,10.40
2011,06,26,00,43,10.40
2011,06,26,00,44,10.40
2011,06,26,00,45,10.40
2011,06,26,00,46,10.40
2011,06,26,00,47,10.40
2011,06,26,00,48,10.30
2011,06,26,00,49,10.30
2011,06,26,00,50,10.30
2011,06,26,00,51,10.30
2011,06,26,00,52,10.30
2011,06,26,00,53,10.30
2011,06,26,00,54,10.30
2011,06,26,00,55,10.30
2011,06,26,00,56,10.20
2011,06,26,00,57,10.20
2011,06,26,00,58,10.20
2011,06,26,00,59,10.20
2011,06,26,01,00,10.20
2011,06,26,01,01,10.20
2011,06,26,01,02,10.20
2011,06,26,01,03,10.10
2011,06,26,01,04,10.10
2011,06,26,01,05,10.10
2011,06,26,01,06,10.10
2011,06,26,01,07,10.10
2011,06,26,01,08,10.10
2011,06,26,01,09,10.10
2011,06,26,01,10,10.10
2011,06,26,01,11,10.10
2011,06,26,01,12,10.10
2011,06,26,01,13,10.10
2011,06,26,01,14,10.00
2011,06,26,01,15,10.00
2011,06,26,01,16,10.00
2011,06,26,01,17,10.00
2011,06,26,01,18,10.00
2011,06,26,01,19,10.00
2011,06,26,01,20,10.00
2011,06,26,01,21,9.90
2011,06,26,01,22,9.90
2011,06,26,01,23,9.90
2011,06,26,01,24,9.90
2011,06,26,01,25,9.90
2011,06,26,01,26,9.90
2011,06,26,01,27,9.90
2011,06,26,01,28,9.90
2011,06,26,01,29,9.90
2011,06,26,01,30,9.90
2011,06,26,01,31,9.90
2011,06,26,01,32,9.90
2011,06,26,01,33,9.80
2011,06,26,01,34,9.80
2011,06,26,01,35,9.80
2011,06,26,01,36,9.80
2011,06,26,01,37,9.80
2011,06,26,01,38,9.80
2011,06,26,01,39,9.80
2011,06,26,01,40,9.80
2011,06,26,01,41,9.70
2011,06,26,01,42,9.70
2011,06,26,01,43,9.70
2011,06,26,01,44,9.70
2011,06,26,01,45,9.70
2011,06,26,01,46,9.70
2011,06,26,01,47,9.70
2011,06,26,01,48,9.70
2011,06,26,01,49,9.70
2011,06,26,01,50,9.60
2011,06,26,01,51,9.60
2011,06,26,01,52,9.60
2011,06,26,01,53,9.60
2011,06,26,01,54,9.60
2011,06,26,01,55,9.70
2011,06,26,01,56,9.70
2011,06,26,01,57,9.70
2011,06,26,01,58,9.70
2011,06,26,01,59,9.70
2011,06,26,02,00,9.70
2011,06,26,02,01,9.70
2011,06,26,02,02,9.70
2011,06,26,02,03,9.60
2011,06,26,02,04,9.60
2011,06,26,02,05,9.60
2011,06,26,02,06,9.60
2011,06,26,02,07,9.60
2011,06,26,02,08,9.60
2011,06,26,02,09,9.60
2011,06,26,02,10,9.60
2011,06,26,02,11,9.60
2011,06,26,02,12,9.60
2011,06,26,02,13,9.60
2011,06,26,02,14,9.60
2011,06,26,02,15,9.50
2011,06,26,02,16,9.50
2011,06,26,02,17,9.50
2011,06,26,02,18,9.50
2011,06,26,02,19,9.40
2011,06,26,02,20,9.40
2011,06,26,02,21,9.40
2011,06,26,02,22,9.40
2011,06,26,02,23,9.40
2011,06,26,02,24,9.40
2011,06,26,02,25,9.30
2011,06,26,02,26,9.30
2011,06,26,02,27,9.30
2011,06,26,02,28,9.30
2011,06,26,02,29,9.30
2011,06,26,02,30,9.30
2011,06,26,02,31,9.30
2011,06,26,02,32,9.20
2011,06,26,02,33,9.20
2011,06,26,02,34,9.20
2011,06,26,02,35,9.20
2011,06,26,02,36,9.20
2011,06,26,02,37,9.20
2011,06,26,02,38,9.20
2011,06,26,02,39,9.10
2011,06,26,02,40,9.10
2011,06,26,02,41,9.10
2011,06,26,02,42,9.10
2011,06,26,02,43,9.10
2011,06,26,02,44,9.10
2011,06,26,02,45,9.00
2011,06,26,02,46,9.00
2011,06,26,02,47,9.00
2011,06,26,02,48,9.00
2011,06,26,02,49,9.00
2011,06,26,02,50,8.90
2011,06,26,02,51,8.90
2011,06,26,02,52,8.90
2011,06,26,02,53,8.90
2011,06,26,02,54,8.90
2011,06,26,02,55,8.90
2011,06,26,02,56,8.90
2011,06,26,02,57,8.80
2011,06,26,02,58,8.80
2011,06,26,02,59,8.80
2011,06,26,03,00,8.80
2011,06,26,03,01,8.80
2011,06,26,03,02,8.80
2011,06,26,03,03,8.80
2011,06,26,03,04,8.80
2011,06,26,03,05,8.80
2011,06,26,03,06,8.80
2011,06,26,03,07,8.80
2011,06,26,03,08,8.80
2011,06,26,03,09,8.80
2011,06,26,03,10,8.80
2011,06,26,03,11,8.80
2011,06,26,03,12,8.80
2011,06,26,03,13,8.70
2011,06,26,03,14,8.70
2011,06,26,03,15,8.70
2011,06,26,03,16,8.70
2011,06,26,03,17,8.70
2011,06,26,03,18,8.70
2011,06,26,03,19,8.70
2011,06,26,03,20,8.70
2011,06,26,03,21,8.60
2011,06,26,03,22,8.60
2011,06,26,03,23,8.60
2011,06,26,03,24,8.60
2011,06,26,03,25,8.60
2011,06,26,03,26,8.60
2011,06,26,03,27,8.60
2011,06,26,03,28,8.60
2011,06,26,03,29,8.60
2011,06,26,03,30,8.60
2011,06,26,03,31,8.50
2011,06,26,03,32,8.50
2011,06,26,03,33,8.50
2011,06,26,03,34,8.50
2011,06,26,03,35,8.50
2011,06,26,03,36,8.50
2011,06,26,03,37,8.50
2011,06,26,03,38,8.50
2011,06,26,03,39,8.50
2011,06,26,03,40,8.50
2011,06,26,03,41,8.50
2011,06,26,03,42,8.50
2011,06,26,03,43,8.50
2011,06,26,03,44,8.50
2011,06,26,03,45,8.40
2011,06,26,03,46,8.40
2011,06,26,03,47,8.40
2011,06,26,03,48,8.40
2011,06,26,03,49,8.40
2011,06,26,03,50,8.40
2011,06,26,03,51,8.30
2011,06,26,03,52,8.30
2011,06,26,03,53,8.30
2011,06,26,03,54,8.30
2011,06,26,03,55,8.30
2011,06,26,03,56,8.30
2011,06,26,03,57,8.30
2011,06,26,03,58,8.30
2011,06,26,03,59,8.30
2011,06,26,04,00,8.30
2011,06,26,04,01,8.30
2011,06,26,04,02,8.30
2011,06,26,04,03,8.30
2011,06,26,04,04,8.20
2011,06,26,04,05,8.20
2011,06,26,04,06,8.20
2011,06,26,04,07,8.20
2011,06,26,04,08,8.20
2011,06,26,04,09,8.20
2011,06,26,04,10,8.20
2011,06,26,04,11,8.20
2011,06,26,04,12,8.20
2011,06,26,04,13,8.10
2011,06,26,04,14,8.10
2011,06,26,04,15,8.10
2011,06,26,04,16,8.10
2011,06,26,04,17,8.10
2011,06,26,04,18,8.10
2011,06,26,04,19,8.10
2011,06,26,04,20,8.10
2011,06,26,04,21,8.10
2011,06,26,04,22,8.10
2011,06,26,04,23,8.10
2011,06,26,04,24,8.00
2011,06,26,04,25,8.00
2011,06,26,04,26,8.00
2011,06,26,04,27,8.00
2011,06,26,04,28,8.00
2011,06,26,04,29,8.00
2011,06,26,04,30,7.90
2011,06,26,04,31,7.90
2011,06,26,04,32,7.90
2011,06,26,04,33,7.90
2011,06,26,04,34,7.90
2011,06,26,04,35,7.90
2011,06,26,04,36,7.90
2011,06,26,04,37,7.90
2011,06,26,04,38,7.90
2011,06,26,04,39,7.90
2011,06,26,04,40,7.90
2011,06,26,04,41,7.90
2011,06,26,04,42,7.90
2011,06,26,04,43,7.90
2011,06,26,04,44,7.90
2011,06,26,04,45,7.90
2011,06,26,04,46,7.90
2011,06,26,04,47,7.90
2011,06,26,04,48,7.90
2011,06,26,04,49,7.90
2011,06,26,04,50,7.90
2011,06,26,04,51,7.90
2011,06,26,04,52,7.90
2011,06,26,04,53,7.90
2011,06,26,04,54,7.90
2011,06,26,04,55,7.80
2011,06,26,04,56,7.80
2011,06,26,04,57,7.80
2011,06,26,04,58,7.80
2011,06,26,04,59,7.80
2011,06,26,05,00,7.80
2011,06,26,05,01,7.80
2011,06,26,05,02,7.80
2011,06,26,05,03,7.80
2011,06,26,05,04,7.80
2011,06,26,05,05,7.80
2011,06,26,05,06,7.80
2011,06,26,05,07,7.80
2011,06,26,05,08,7.80
2011,06,26,05,09,7.80
2011,06,26,05,10,7.80
2011,06,26,05,11,7.80
2011,06,26,05,12,7.80
2011,06,26,05,13,7.80
2011,06,26,05,14,7.80
2011,06,26,05,15,7.80
2011,06,26,05,16,7.80
2011,06,26,05,17,7.80
2011,06,26,05,18,7.80
2011,06,26,05,19,7.80
2011,06,26,05,20,7.80
2011,06,26,05,21,7.80
2011,06,26,05,22,7.80
2011,06,26,05,23,7.80
2011,06,26,05,24,7.80
2011,06,26,05,25,7.80
2011,06,26,05,26,7.80
2011,06,26,05,27,7.80
2011,06,26,05,28,7.80
2011,06,26,05,29,7.80
2011,06,26,05,30,7.80
2011,06,26,05,31,7.70
2011,06,26,05,32,7.70
2011,06,26,05,33,7.70
2011,06,26,05,34,7.70
2011,06,26,05,35,7.70
2011,06,26,05,36,7.70
2011,06,26,05,37,7.70
2011,06,26,05,38,7.70
2011,06,26,05,39,7.70
2011,06,26,05,40,7.70
2011,06,26,05,41,7.70
2011,06,26,05,42,7.70
2011,06,26,05,43,7.70
2011,06,26,05,44,7.70
2011,06,26,05,45,7.70
2011,06,26,05,46,7.70
2011,06,26,05,47,7.70
2011,06,26,05,48,7.70
2011,06,26,05,49,7.70
2011,06,26,05,50,7.70
2011,06,26,05,51,7.80
2011,06,26,05,52,7.80
2011,06,26,05,53,7.80
2011,06,26,05,54,7.80
2011,06,26,05,55,7.80
2011,06,26,05,56,7.80
2011,06,26,05,57,7.80
2011,06,26,05,58,7.80
2011,06,26,05,59,7.90
2011,06,26,06,00,7.90
2011,06,26,06,01,7.90
2011,06,26,06,02,7.90
2011,06,26,06,03,7.90
2011,06,26,06,04,7.90
2011,06,26,06,05,8.00
2011,06,26,06,06,8.00
2011,06,26,06,07,8.00
2011,06,26,06,08,8.10
2011,06,26,06,09,8.10
2011,06,26,06,10,8.10
2011,06,26,06,11,8.10
2011,06,26,06,12,8.10
2011,06,26,06,13,8.20
2011,06,26,06,14,8.20
2011,06,26,06,15,8.20
2011,06,26,06,16,8.20
2011,06,26,06,17,8.20
2011,06,26,06,18,8.20
2011,06,26,06,19,8.20
2011,06,26,06,20,8.30
2011,06,26,06,21,8.30
2011,06,26,06,22,8.30
2011,06,26,06,23,8.30
2011,06,26,06,24,8.30
2011,06,26,06,25,8.30
2011,06,26,06,26,8.30
2011,06,26,06,27,8.30
2011,06,26,06,28,8.40
2011,06,26,06,29,8.40
2011,06,26,06,30,8.40
2011,06,26,06,31,8.40
2011,06,26,06,32,8.40
2011,06,26,06,33,8.40
2011,06,26,06,34,8.50
2011,06,26,06,35,8.50
2011,06,26,06,36,8.50
2011,06,26,06,37,8.60
2011,06,26,06,38,8.60
2011,06,26,06,39,8.70
2011,06,26,06,40,8.70
2011,06,26,06,41,8.70
2011,06,26,06,42,8.80
2011,06,26,06,43,8.80
2011,06,26,06,44,8.80
2011,06,26,06,45,8.90
2011,06,26,06,46,8.90
2011,06,26,06,47,8.90
2011,06,26,06,48,8.90
2011,06,26,06,49,9.00
2011,06,26,06,50,9.00
2011,06,26,06,51,9.10
2011,06,26,06,52,9.10
2011,06,26,06,53,9.10
2011,06,26,06,54,9.20
2011,06,26,06,55,9.20
2011,06,26,06,56,9.20
2011,06,26,06,57,9.30
2011,06,26,06,58,9.30
2011,06,26,06,59,9.40
2011,06,26,07,00,9.40
2011,06,26,07,01,9.50
2011,06,26,07,02,9.50
2011,06,26,07,03,9.60
2011,06,26,07,04,9.70
2011,06,26,07,05,9.70
2011,06,26,07,06,9.80
2011,06,26,07,07,9.80
2011,06,26,07,08,9.80
2011,06,26,07,09,9.90
2011,06,26,07,10,10.00
2011,06,26,07,11,10.00
2011,06,26,07,12,10.10
2011,06,26,07,13,10.10
2011,06,26,07,14,10.20
2011,06,26,07,15,10.20
2011,06,26,07,16,10.20
2011,06,26,07,17,10.30
2011,06,26,07,18,10.30
2011,06,26,07,19,10.40
2011,06,26,07,20,10.40
2011,06,26,07,21,10.50
2011,06,26,07,22,10.50
2011,06,26,07,23,10.60
2011,06,26,07,24,10.70
2011,06,26,07,25,10.70
2011,06,26,07,26,10.70
2011,06,26,07,27,10.80
2011,06,26,07,28,10.80
2011,06,26,07,29,10.90
2011,06,26,07,30,11.00
2011,06,26,07,31,11.00
2011,06,26,07,32,11.10
2011,06,26,07,33,11.10
2011,06,26,07,34,11.20
2011,06,26,07,35,11.20
2011,06,26,07,36,11.30
2011,06,26,07,37,11.30
2011,06,26,07,38,11.40
2011,06,26,07,39,11.40
2011,06,26,07,40,11.50
2011,06,26,07,41,11.50
2011,06,26,07,42,11.60
2011,06,26,07,43,11.70
2011,06,26,07,44,11.70
2011,06,26,07,45,11.80
2011,06,26,07,46,11.80
2011,06,26,07,47,11.90
2011,06,26,07,48,11.90
2011,06,26,07,49,12.00
2011,06,26,07,50,12.00
2011,06,26,07,51,12.10
2011,06,26,07,52,12.10
2011,06,26,07,53,12.10
2011,06,26,07,54,12.10
2011,06,26,07,55,12.10
2011,06,26,07,56,12.10
2011,06,26,07,57,12.10
2011,06,26,07,58,12.10
2011,06,26,07,59,12.10
2011,06,26,08,00,12.10
2011,06,26,08,01,12.10
2011,06,26,08,02,12.10
2011,06,26,08,03,12.10
2011,06,26,08,04,12.10
2011,06,26,08,05,12.10
2011,06,26,08,06,12.10
2011,06,26,08,07,12.10
2011,06,26,08,08,12.10
2011,06,26,08,09,12.10
2011,06,26,08,10,12.10
2011,06,26,08,11,12.10
2011,06,26,08,12,12.10
2011,06,26,08,13,12.10
2011,06,26,08,14,12.20
2011,06,26,08,15,12.20
2011,06,26,08,16,12.20
2011,06,26,08,17,12.20
2011,06,26,08,18,12.20
2011,06,26,08,19,12.20
2011,06,26,08,20,12.30
2011,06,26,08,21,12.30
2011,06,26,08,22,12.30
2011,06,26,08,23,12.30
2011,06,26,08,24,12.40
2011,06,26,08,25,12.40
2011,06,26,08,26,12.40
2011,06,26,08,27,12.40
2011,06,26,08,28,12.40
2011,06,26,08,29,12.50
2011,06,26,08,30,12.50
2011,06,26,08,31,12.60
2011,06,26,08,32,12.60
2011,06,26,08,33,12.60
2011,06,26,08,34,12.70
2011,06,26,08,35,12.70
2011,06,26,08,36,12.80
2011,06,26,08,37,12.80
2011,06,26,08,38,12.80
2011,06,26,08,39,12.90
2011,06,26,08,40,12.90
2011,06,26,08,41,13.00
2011,06,26,08,42,13.00
2011,06,26,08,43,13.10
2011,06,26,08,44,13.10
2011,06,26,08,45,13.20
2011,06,26,08,46,13.20
2011,06,26,08,47,13.30
2011,06,26,08,48,13.30
2011,06,26,08,49,13.30
2011,06,26,08,50,13.30
2011,06,26,08,51,13.40
2011,06,26,08,52,13.40
2011,06,26,08,53,13.40
2011,06,26,08,54,13.50
2011,06,26,08,55,13.50
2011,06,26,08,56,13.50
2011,06,26,08,57,13.60
2011,06,26,08,58,13.60
2011,06,26,08,59,13.60
2011,06,26,09,00,13.60
2011,06,26,09,01,13.70
2011,06,26,09,02,13.70
2011,06,26,09,03,13.70
2011,06,26,09,04,13.80
2011,06,26,09,05,13.80
2011,06,26,09,06,13.80
2011,06,26,09,07,13.90
2011,06,26,09,08,13.90
2011,06,26,09,09,13.90
2011,06,26,09,10,14.00
2011,06,26,09,11,14.00
2011,06,26,09,12,14.10
2011,06,26,09,13,14.10
2011,06,26,09,14,14.10
2011,06,26,09,15,14.10
2011,06,26,09,16,14.10
2011,06,26,09,17,14.20
2011,06,26,09,18,14.20
2011,06,26,09,19,14.30
2011,06,26,09,20,14.30
2011,06,26,09,21,14.40
2011,06,26,09,22,14.40
2011,06,26,09,23,14.50
2011,06,26,09,24,14.60
2011,06,26,09,25,14.60
2011,06,26,09,26,14.70
2011,06,26,09,27,14.70
2011,06,26,09,28,14.80
2011,06,26,09,29,14.80
2011,06,26,09,30,14.80
2011,06,26,09,31,14.90
2011,06,26,09,32,14.90
2011,06,26,09,33,15.00
2011,06,26,09,34,15.10
2011,06,26,09,35,15.10
2011,06,26,09,36,15.20
2011,06,26,09,37,15.30
2011,06,26,09,38,15.40
2011,06,26,09,39,15.40
2011,06,26,09,40,15.50
2011,06,26,09,41,15.50
2011,06,26,09,42,15.50
2011,06,26,09,43,15.60
2011,06,26,09,44,15.60
2011,06,26,09,45,15.60
2011,06,26,09,46,15.60
2011,06,26,09,47,15.60
2011,06,26,09,48,15.60
2011,06,26,09,49,15.60
2011,06,26,09,50,15.60
2011,06,26,09,51,15.50
2011,06,26,09,52,15.50
2011,06,26,09,53,15.50
2011,06,26,09,54,15.50
2011,06,26,09,55,15.50
2011,06,26,09,56,15.40
2011,06,26,09,57,15.40
2011,06,26,09,58,15.40
2011,06,26,09,59,15.40
2011,06,26,10,00,15.40
2011,06,26,10,01,15.40
2011,06,26,10,02,15.40
2011,06,26,10,03,15.40
2011,06,26,10,04,15.40
2011,06,26,10,05,15.40
2011,06,26,10,06,15.40
2011,06,26,10,07,15.40
2011,06,26,10,08,15.40
2011,06,26,10,09,15.30
2011,06,26,10,10,15.30
2011,06,26,10,11,15.30
2011,06,26,10,12,15.40
2011,06,26,10,13,15.40
2011,06,26,10,14,15.40
2011,06,26,10,15,15.40
2011,06,26,10,16,15.40
2011,06,26,10,17,15.40
2011,06,26,10,18,15.40
2011,06,26,10,19,15.40
2011,06,26,10,20,15.40
2011,06,26,10,21,15.40
2011,06,26,10,22,15.40
2011,06,26,10,23,15.40
2011,06,26,10,24,15.40
2011,06,26,10,25,15.50
2011,06,26,10,26,15.60
2011,06,26,10,27,15.60
2011,06,26,10,28,15.70
2011,06,26,10,29,15.80
2011,06,26,10,30,15.80
2011,06,26,10,31,15.90
2011,06,26,10,32,16.00
2011,06,26,10,33,16.00
2011,06,26,10,34,16.10
2011,06,26,10,35,16.20
2011,06,26,10,36,16.20
2011,06,26,10,37,16.30
2011,06,26,10,38,16.40
2011,06,26,10,39,16.50
2011,06,26,10,40,16.60
2011,06,26,10,41,16.70
2011,06,26,10,42,16.80
2011,06,26,10,43,16.80
2011,06,26,10,44,16.80
2011,06,26,10,45,16.90
2011,06,26,10,46,16.90
2011,06,26,10,47,16.90
2011,06,26,10,48,16.90
2011,06,26,10,49,16.90
2011,06,26,10,50,16.90
2011,06,26,10,51,16.90
2011,06,26,10,52,17.00
2011,06,26,10,53,17.00
2011,06,26,10,54,17.10
2011,06,26,10,55,17.10
2011,06,26,10,56,17.20
2011,06,26,10,57,17.20
2011,06,26,10,58,17.20
2011,06,26,10,59,17.30
2011,06,26,11,00,17.30
2011,06,26,11,01,17.20
2011,06,26,11,02,17.20
2011,06,26,11,03,17.20
2011,06,26,11,04,17.10
2011,06,26,11,05,17.10
2011,06,26,11,06,17.10
2011,06,26,11,07,17.10
2011,06,26,11,08,17.10
2011,06,26,11,09,17.10
2011,06,26,11,10,17.20
2011,06,26,11,11,17.20
2011,06,26,11,12,17.20
2011,06,26,11,13,17.20
2011,06,26,11,14,17.30
2011,06,26,11,15,17.30
2011,06,26,11,16,17.30
2011,06,26,11,17,17.30
2011,06,26,11,18,17.30
2011,06,26,11,19,17.30
2011,06,26,11,20,17.30
2011,06,26,11,21,17.20
2011,06,26,11,22,17.20
2011,06,26,11,23,17.10
2011,06,26,11,24,17.10
2011,06,26,11,25,17.10
2011,06,26,11,26,17.00
2011,06,26,11,27,17.00
2011,06,26,11,28,16.90
2011,06,26,11,29,16.90
2011,06,26,11,30,16.90
2011,06,26,11,31,16.90
2011,06,26,11,32,16.90
2011,06,26,11,33,16.90
2011,06,26,11,34,16.90
2011,06,26,11,35,17.00
2011,06,26,11,36,17.00
2011,06,26,11,37,17.20
2011,06,26,11,38,17.30
2011,06,26,11,39,17.40
2011,06,26,11,40,17.50
2011,06,26,11,41,17.60
2011,06,26,11,42,17.70
2011,06,26,11,43,17.80
2011,06,26,11,44,17.80
2011,06,26,11,45,17.80
2011,06,26,11,46,17.80
2011,06,26,11,47,17.80
2011,06,26,11,48,17.80
2011,06,26,11,49,17.80
2011,06,26,11,50,17.80
2011,06,26,11,51,17.80
2011,06,26,11,52,17.80
2011,06,26,11,53,17.80
2011,06,26,11,54,17.90
2011,06,26,11,55,17.90
2011,06,26,11,56,17.90
2011,06,26,11,57,18.00
2011,06,26,11,58,18.00
2011,06,26,11,59,18.00
2011,06,26,12,00,18.00
2011,06,26,12,01,17.90
2011,06,26,12,02,17.90
2011,06,26,12,03,17.80
2011,06,26,12,04,17.80
2011,06,26,12,05,17.80
2011,06,26,12,06,17.80
2011,06,26,12,07,17.80
2011,06,26,12,08,17.80
2011,06,26,12,09,17.90
2011,06,26,12,10,17.90
2011,06,26,12,11,17.90
2011,06,26,12,12,17.90
2011,06,26,12,13,17.90
2011,06,26,12,14,17.90
2011,06,26,12,15,17.90
2011,06,26,12,16,17.90
2011,06,26,12,17,17.90
2011,06,26,12,18,17.90
2011,06,26,12,19,18.00
2011,06,26,12,20,18.00
2011,06,26,12,21,18.10
2011,06,26,12,22,18.10
2011,06,26,12,23,18.10
2011,06,26,12,24,18.10
2011,06,26,12,25,18.10
2011,06,26,12,26,18.10
2011,06,26,12,27,18.10
2011,06,26,12,28,18.00
2011,06,26,12,29,18.00
2011,06,26,12,30,17.90
2011,06,26,12,31,17.90
2011,06,26,12,32,17.90
2011,06,26,12,33,17.90
2011,06,26,12,34,17.90
2011,06,26,12,35,17.90
2011,06,26,12,36,17.90
2011,06,26,12,37,18.00
2011,06,26,12,38,18.00
2011,06,26,12,39,18.00
2011,06,26,12,40,18.10
2011,06,26,12,41,18.10
2011,06,26,12,42,18.20
2011,06,26,12,43,18.30
2011,06,26,12,44,18.30
2011,06,26,12,45,18.40
2011,06,26,12,46,18.40
2011,06,26,12,47,18.50
2011,06,26,12,48,18.40
2011,06,26,12,49,18.40
2011,06,26,12,50,18.40
2011,06,26,12,51,18.40
2011,06,26,12,52,18.40
2011,06,26,12,53,18.40
2011,06,26,12,54,18.40
2011,06,26,12,55,18.40
2011,06,26,12,56,18.40
2011,06,26,12,57,18.40
2011,06,26,12,58,18.40
2011,06,26,12,59,18.40
2011,06,26,13,00,18.50
2011,06,26,13,01,18.50
2011,06,26,13,02,18.60
2011,06,26,13,03,18.60
2011,06,26,13,04,18.60
2011,06,26,13,05,18.70
2011,06,26,13,06,18.70
2011,06,26,13,07,18.70
2011,06,26,13,08,18.70
2011,06,26,13,09,18.70
2011,06,26,13,10,18.60
2011,06,26,13,11,18.60
2011,06,26,13,12,18.60
2011,06,26,13,13,18.60
2011,06,26,13,14,18.60
2011,06,26,13,15,18.60
2011,06,26,13,16,18.60
2011,06,26,13,17,18.60
2011,06,26,13,18,18.60
2011,06,26,13,19,18.70
2011,06,26,13,20,18.70
2011,06,26,13,21,18.70
2011,06,26,13,22,18.80
2011,06,26,13,23,18.80
2011,06,26,13,24,18.80
2011,06,26,13,25,18.80
2011,06,26,13,26,18.80
2011,06,26,13,27,18.80
2011,06,26,13,28,18.80
2011,06,26,13,29,18.80
2011,06,26,13,30,18.80
2011,06,26,13,31,18.80
2011,06,26,13,32,18.80
2011,06,26,13,33,18.80
2011,06,26,13,34,18.80
2011,06,26,13,35,18.80
2011,06,26,13,36,18.80
2011,06,26,13,37,18.80
2011,06,26,13,38,18.80
2011,06,26,13,39,18.80
2011,06,26,13,40,18.80
2011,06,26,13,41,18.80
2011,06,26,13,42,18.90
2011,06,26,13,43,18.90
2011,06,26,13,44,18.90
2011,06,26,13,45,19.00
2011,06,26,13,46,19.00
2011,06,26,13,47,19.00
2011,06,26,13,48,19.00
2011,06,26,13,49,19.00
2011,06,26,13,50,19.00
2011,06,26,13,51,19.00
2011,06,26,13,52,19.00
2011,06,26,13,53,19.00
2011,06,26,13,54,18.90
2011,06,26,13,55,18.90
2011,06,26,13,56,18.90
2011,06,26,13,57,18.90
2011,06,26,13,58,18.90
2011,06,26,13,59,18.90
2011,06,26,14,00,19.00
2011,06,26,14,01,19.00
2011,06,26,14,02,19.10
2011,06,26,14,03,19.10
2011,06,26,14,04,19.10
2011,06,26,14,05,19.10
2011,06,26,14,06,19.00
2011,06,26,14,07,19.00
2011,06,26,14,08,18.90
2011,06,26,14,09,18.90
2011,06,26,14,10,18.90
2011,06,26,14,11,18.80
2011,06,26,14,12,18.70
2011,06,26,14,13,18.70
2011,06,26,14,14,18.70
2011,06,26,14,15,18.60
2011,06,26,14,16,18.60
2011,06,26,14,17,18.60
2011,06,26,14,18,18.60
2011,06,26,14,19,18.60
2011,06,26,14,20,18.60
2011,06,26,14,21,18.60
2011,06,26,14,22,18.60
2011,06,26,14,23,18.60
2011,06,26,14,24,18.70
2011,06,26,14,25,18.70
2011,06,26,14,26,18.80
2011,06,26,14,27,18.80
2011,06,26,14,28,18.80
2011,06,26,14,29,18.80
2011,06,26,14,30,18.90
2011,06,26,14,31,18.90
2011,06,26,14,32,18.90
2011,06,26,14,33,18.90
2011,06,26,14,34,18.80
2011,06,26,14,35,18.80
2011,06,26,14,36,18.80
2011,06,26,14,37,18.80
2011,06,26,14,38,18.80
2011,06,26,14,39,18.80
2011,06,26,14,40,18.80
2011,06,26,14,41,18.90
2011,06,26,14,42,18.90
2011,06,26,14,43,18.90
2011,06,26,14,44,18.90
2011,06,26,14,45,19.00
2011,06,26,14,46,19.00
2011,06,26,14,47,19.00
2011,06,26,14,48,19.10
2011,06,26,14,49,19.10
2011,06,26,14,50,19.10
2011,06,26,14,51,19.10
2011,06,26,14,52,19.20
2011,06,26,14,53,19.20
2011,06,26,14,54,19.20
2011,06,26,14,55,19.20
2011,06,26,14,56,19.30
2011,06,26,14,57,19.30
2011,06,26,14,58,19.30
2011,06,26,14,59,19.30
2011,06,26,15,00,19.30
2011,06,26,15,01,19.30
2011,06,26,15,02,19.40
2011,06,26,15,03,19.40
2011,06,26,15,04,19.40
2011,06,26,15,05,19.40
2011,06,26,15,06,19.40
2011,06,26,15,07,19.40
2011,06,26,15,08,19.40
2011,06,26,15,09,19.40
2011,06,26,15,10,19.30
2011,06,26,15,11,19.30
2011,06,26,15,12,19.30
2011,06,26,15,13,19.30
2011,06,26,15,14,19.30
2011,06,26,15,15,19.30
2011,06,26,15,16,19.20
2011,06,26,15,17,19.20
2011,06,26,15,18,19.20
2011,06,26,15,19,19.20
2011,06,26,15,20,19.10
2011,06,26,15,21,19.10
2011,06,26,15,22,19.10
2011,06,26,15,23,19.10
2011,06,26,15,24,19.00
2011,06,26,15,25,19.00
2011,06,26,15,26,19.00
2011,06,26,15,27,18.90
2011,06,26,15,28,18.90
2011,06,26,15,29,18.90
2011,06,26,15,30,18.80
2011,06,26,15,31,18.70
2011,06,26,15,32,18.70
2011,06,26,15,33,18.60
2011,06,26,15,34,18.60
2011,06,26,15,35,18.50
2011,06,26,15,36,18.50
2011,06,26,15,37,18.40
2011,06,26,15,38,18.40
2011,06,26,15,39,18.40
2011,06,26,15,40,18.30
2011,06,26,15,41,18.30
2011,06,26,15,42,18.30
2011,06,26,15,43,18.30
2011,06,26,15,44,18.30
2011,06,26,15,45,18.30
2011,06,26,15,46,18.30
2011,06,26,15,47,18.30
2011,06,26,15,48,18.20
2011,06,26,15,49,18.20
2011,06,26,15,50,18.20
2011,06,26,15,51,18.10
2011,06,26,15,52,18.10
2011,06,26,15,53,18.10
2011,06,26,15,54,18.10
2011,06,26,15,55,18.10
2011,06,26,15,56,18.10
2011,06,26,15,57,18.10
2011,06,26,15,58,18.10
2011,06,26,15,59,18.10
2011,06,26,16,00,18.10
2011,06,26,16,01,18.10
2011,06,26,16,02,18.20
2011,06,26,16,03,18.20
2011,06,26,16,04,18.20
2011,06,26,16,05,18.10
2011,06,26,16,06,18.10
2011,06,26,16,07,18.10
2011,06,26,16,08,18.10
2011,06,26,16,09,18.10
2011,06,26,16,10,18.10
2011,06,26,16,11,18.10
2011,06,26,16,12,18.10
2011,06,26,16,13,18.10
2011,06,26,16,14,18.10
2011,06,26,16,15,18.10
2011,06,26,16,16,18.10
2011,06,26,16,17,18.10
2011,06,26,16,18,18.10
2011,06,26,16,19,18.10
2011,06,26,16,20,18.10
2011,06,26,16,21,18.10
2011,06,26,16,22,18.10
2011,06,26,16,23,18.00
2011,06,26,16,24,18.10
2011,06,26,16,25,18.10
2011,06,26,16,26,18.10
2011,06,26,16,27,18.10
2011,06,26,16,28,18.10
2011,06,26,16,29,18.10
2011,06,26,16,30,18.10
2011,06,26,16,31,18.10
2011,06,26,16,32,18.10
2011,06,26,16,33,18.10
2011,06,26,16,34,18.00
2011,06,26,16,35,18.00
2011,06,26,16,36,18.00
2011,06,26,16,37,18.00
2011,06,26,16,38,18.00
2011,06,26,16,39,17.90
2011,06,26,16,40,17.90
2011,06,26,16,41,17.90
2011,06,26,16,42,17.90
2011,06,26,16,43,17.90
2011,06,26,16,44,17.90
2011,06,26,16,45,17.90
2011,06,26,16,46,17.90
2011,06,26,16,47,17.90
2011,06,26,16,48,17.90
2011,06,26,16,49,17.90
2011,06,26,16,50,17.90
2011,06,26,16,51,17.80
2011,06,26,16,52,17.80
2011,06,26,16,53,17.80
2011,06,26,16,54,17.80
2011,06,26,16,55,17.80
2011,06,26,16,56,17.80
2011,06,26,16,57,17.80
2011,06,26,16,58,17.80
2011,06,26,16,59,17.90
2011,06,26,17,00,17.90
2011,06,26,17,01,17.90
2011,06,26,17,02,17.90
2011,06,26,17,03,17.90
2011,06,26,17,04,17.90
2011,06,26,17,05,17.90
2011,06,26,17,06,17.90
2011,06,26,17,07,17.90
2011,06,26,17,08,17.90
2011,06,26,17,09,18.00
2011,06,26,17,10,18.00
2011,06,26,17,11,18.00
2011,06,26,17,12,18.00
2011,06,26,17,13,18.00
2011,06,26,17,14,18.10
2011,06,26,17,15,18.10
2011,06,26,17,16,18.10
2011,06,26,17,17,18.10
2011,06,26,17,18,18.10
2011,06,26,17,19,18.10
2011,06,26,17,20,18.10
2011,06,26,17,21,18.10
2011,06,26,17,22,18.20
2011,06,26,17,23,18.20
2011,06,26,17,24,18.20
2011,06,26,17,25,18.20
2011,06,26,17,26,18.20
2011,06,26,17,27,18.30
2011,06,26,17,28,18.30
2011,06,26,17,29,18.30
2011,06,26,17,30,18.30
2011,06,26,17,31,18.30
2011,06,26,17,32,18.30
2011,06,26,17,33,18.30
2011,06,26,17,34,18.30